Regional Weather Roundup
Issued by NWS

Home | Current Version | Previous Version | Graphics & Text | Print | Product List | Glossary On
Versions: 1 2 3 4 5 6 7 8 9 10 11 12 13 14 15 16 17 18 19 20 21 22 23 24 25 26 27 28 29 30 31 32 33 34 35 36 37 38 39 40 41 42 43 44 45 46 47 48 49 50
000
ASUS45 KABQ 192301
RWRNM
WEATHER ROUNDUP FOR NEW MEXICO
NATIONAL WEATHER SERVICE ALBUQUERQUE NM
500 PM MDT FRI SEP 19 2014

NOTE: "FAIR" MEANS FEW OR NO CLOUDS BELOW 12,000 FEET AGL WITH NO
       SIGNIFICANT WEATHER OR OBSTRUCTIONS TO VISION.

      THIS PRODUCT IS RELEASED AS TWO VERSIONS.  ONE VERSION NEAR
      THE TOP OF THE HOUR CONTAINING PRELIMINARY DATA FROM ALBUQUERQUE
      AND OTHER STATIONS.  A FINAL VERSION WITH ADDITIONAL DATA IS
      ISSUED ABOUT 10 MINUTES AFTER THE HOUR.

NMZ501-503-504-510>518-200000-
NORTHWEST PLATEAU/NORTHCENTRAL MOUNTAINS

CITY           SKY/WX    TMP DP  RH WIND       PRES   REMARKS
FARMINGTON     SUNNY     86  43  22 W13       29.98F
LOS ALAMOS     PTSUNNY   79  42  26 S10       30.13S
SANTA FE       MOSUNNY   80  51  36 S14       30.07R
TAOS           MOSUNNY   81  32  17 W7        30.09S
ANGEL FIRE     CLOUDY    65  51  60 S10       30.23R

$$
NMZ402-403-502-505>509-200000-
WESTCENTRAL MOUNTAINS/SOUTHWEST MOUNTAINS

CITY           SKY/WX    TMP DP  RH WIND       PRES   REMARKS
GALLUP         PTSUNNY   84  40  21 N15G23    30.08F
GRANTS         MOSUNNY   81  45  28 CALM      30.10S
SILVER CITY    MOSUNNY   77  61  57 S9        30.05F

$$
NMZ407-409-411-412-200000-
SOUTHERN DESERTS

CITY           SKY/WX    TMP DP  RH WIND       PRES   REMARKS
LORDSBURG      FAIR      81  61  50 MISG      29.96F
DEMING         MOSUNNY   79  61  53 SW3       29.97S
LAS CRUCES     SUNNY     80  60  51 W7        29.98S
HOLLOMAN AFB   MOSUNNY   78  63  61 NW2       29.95S
ALAMOGORDO     PTSUNNY   77  63  61 S3        29.97S
T OR C         SUNNY     81  57  43 NE5       29.98F

$$
NMZ519>523-200000-
CENTRAL VALLEYS/CENTRAL HIGHLANDS

CITY           SKY/WX    TMP DP  RH WIND       PRES   REMARKS
ALBUQUERQUE    MOSUNNY   81  53  37 VRB3      30.02S
DOUBLE EAGLE   MOSUNNY   81  52  36 VRB7      30.05S
CLINES CORNERS CLOUDY    69  55  60 S8        30.14S
BELEN          FAIR      80  55  42 SE12      30.02S
SOCORRO        FAIR      81  59  47 NE5       30.00S

$$
NMZ524>526-539-540-200000-
SOUTHCENTRAL MOUNTAINS

CITY           SKY/WX    TMP DP  RH WIND       PRES   REMARKS
RUIDOSO        NOT AVBL

$$
NMZ527>531-200000-
NORTHEAST HIGHLANDS/NORTHEAST PLAINS

CITY           SKY/WX    TMP DP  RH WIND       PRES   REMARKS
LAS VEGAS      PTSUNNY   71  54  54 SW10      30.13S
RATON          SUNNY     80  46  30 SE13      30.05S
CLAYTON        MOSUNNY   75  58  55 S17       30.01S

$$
NMZ532>537-200000-
EASTCENTRAL PLAINS

CITY           SKY/WX    TMP DP  RH WIND       PRES   REMARKS
TUCUMCARI      PTSUNNY   78  58  49 SE7       29.98R
CANNON AFB     NOT AVBL
CLOVIS AIRPORT   N/A     72  63  73 SE12      30.04R

$$
NMZ028-029-538-200000-
SOUTHEAST PLAINS

CITY           SKY/WX    TMP DP  RH WIND       PRES   REMARKS
ROSWELL        CLOUDY    72  68  87 E10       29.95F
CARLSBAD       TSTM      73  32  22 N12       29.92R
HOBBS          CLOUDY    66  66 100 E9        29.99S


$$


USA.gov is the U.S. government's official web portal to all federal, state and local government web resources and services.